Location: Kielce
(50.8833°N, 20.6167°E)
Time: 21:20:43
(UTC+02:00)

SR - Pass Details

Date: 27 April 2021
Orbit: 573 x 882 km, 66.7° (Epoch: 09 May)

Event Time Altitude Azimuth Distance (km) Brightness Sun altitude
Rises 07:52:35 0° 242° (WSW) 3,389 ? 22.9°
Reaches altitude 10° 07:55:08 10° 249° (WSW) 2,488 ? 23.3°
Maximum altitude 08:00:39 43° 320° (NW) 1,221 ? 24.2°
Drops below altitude 10° 08:06:19 10° 31° (NNE) 2,549 ? 25.1°
Sets 08:08:58 0° 39° (NE) 3,480 ? 25.5°
